Location: Berduj
(43.0019°N, 22.3781°E)
Time: 20:17:23
(UTC+00:00)

Cosmos 2239 Rocket - Pass Details

Date: 19 October 2019
Orbit: 954 x 992 km, 82.9° (Epoch: 19 November)

Event Time Altitude Azimuth Distance (km) Brightness Sun altitude
Rises 16:02:47 0° 354° (N) 3,649 7.5 -4.5°
Reaches altitude 10° 16:05:19 10° 356° (N) 2,696 6.8 -5.0°
Maximum altitude 16:11:28 71° 81° (E) 1,006 4.4 -6.1°
Drops below altitude 10° 16:17:33 10° 165° (SSE) 2,674 6.7 -7.2°
Sets 16:20:03 0° 168° (SSE) 3,618 7.4 -7.7°
